Date String (YYYY-MM-DD hh:mm:ss) UTC,Instrument flags,Ambient pressure (hPa),Sample flow (lpm),Bypass flow (lpm),Sample temperature (°C),Ambient temperature (°C),ASC tube jacket temperature (°C),LED temperature (°C),Box temperature (°C),Sample RH (%),Span deviation,Mass concentration (μg/m³),Mass concentration (μg/m³),Mass concentration (μg/m³)
DateTimeUTC,F1_M11,P_M11,Q1_M11,Q2_M11,T1_M11,T2_M11,T3_M11,T4_M11,T5_M11,U1_M11,ZSPAN_M11,X2_M11,X0_M11,X1_M11
2021-10-26 07:00:00,,0815.3,5.00,0.00,30.1,29.2,00.0,39.2,31.8,12.1,0000.0,0004.73,0015.74,0003.64
2021-10-26 07:01:00,,0815.3,5.01,0.00,30.1,29.2,00.0,39.2,31.7,12.1,0000.0,0004.72,0015.09,0003.65
2021-10-26 07:02:00,,0815.3,4.99,0.00,30.1,29.2,00.0,39.2,31.8,12.1,0000.0,0004.66,0014.07,0003.66
2021-10-26 07:03:00,,0815.4,5.00,0.00,30.1,29.2,00.0,39.2,31.8,12.1,0000.0,0004.63,0013.72,0003.67
2021-10-26 07:04:00,,0815.4,5.00,0.00,30.1,29.2,00.0,39.2,31.8,12.1,0000.0,0004.67,0013.22,0003.68
2021-10-26 07:05:00,,0815.3,5.00,0.00,30.1,29.2,00.0,39.2,31.8,12.1,0000.0,0004.68,0012.93,0003.69
2021-10-26 07:06:00,,0815.2,5.00,0.00,30.1,29.2,00.0,39.2,31.8,12.2,0000.0,0004.73,0012.81,0003.71
2021-10-26 07:07:00,,0815.5,4.99,0.00,30.1,29.2,00.0,39.2,31.8,12.2,0000.0,0004.72,0012.28,0003.71
2021-10-26 07:08:00,,0815.3,5.00,0.00,30.1,29.2,00.0,39.2,31.8,12.2,0000.0,0004.70,0012.26,0003.70
2021-10-26 07:09:00,,0815.6,5.02,0.00,30.1,29.2,00.0,39.2,31.8,12.2,0000.0,0004.72,0012.31,0003.70
2021-10-26 07:10:00,,0815.3,4.99,0.00,30.1,29.2,00.0,39.2,31.8,12.3,0000.0,0004.77,0012.30,0003.71
2021-10-26 07:11:00,,0815.3,5.00,0.00,30.1,29.2,00.0,39.2,31.8,12.3,0000.0,0004.78,0011.68,0003.71
2021-10-26 07:12:00,,0815.4,5.00,0.00,30.1,29.2,00.0,39.2,31.8,12.1,0000.0,0004.83,0011.75,0003.72
2021-10-26 07:13:00,,0815.3,5.01,0.00,30.1,29.2,00.0,39.2,31.8,11.9,0000.0,0004.92,0013.76,0003.74
2021-10-26 07:14:00,,0815.4,5.00,0.00,30.1,29.2,00.0,39.2,31.8,11.8,0000.0,0004.93,0013.65,0003.75
2021-10-26 07:15:00,,0815.4,5.00,0.00,30.1,29.2,00.0,39.2,31.8,11.7,0000.0,0004.87,0012.83,0003.75
2021-10-26 07:16:00,,0815.3,5.01,0.00,30.1,29.2,00.0,39.2,31.8,11.8,0000.0,0004.86,0013.29,0003.74
2021-10-26 07:17:00,,0815.3,5.01,0.00,30.1,29.2,00.0,39.2,31.8,11.9,0000.0,0004.90,0014.95,0003.73
2021-10-26 07:18:00,,0815.3,4.99,0.00,30.1,29.2,00.0,39.2,31.8,11.9,0000.0,0004.87,0015.81,0003.73
2021-10-26 07:19:00,,0815.3,5.01,0.00,30.1,29.2,00.0,39.2,31.7,11.9,0000.0,0004.88,0016.37,0003.73
2021-10-26 07:20:00,,0815.2,5.01,0.00,30.1,29.2,00.0,39.2,31.7,11.8,0000.0,0004.84,0016.92,0003.73
2021-10-26 07:21:00,,0815.2,4.99,0.00,30.1,29.2,00.0,39.2,31.8,12.2,0000.0,0004.81,0017.15,0003.74
2021-10-26 07:22:00,,0815.3,5.01,0.00,30.1,29.2,00.0,39.2,31.7,12.8,0000.0,0004.83,0018.02,0003.72
2021-10-26 07:23:00,,0815.4,5.01,0.00,30.1,29.2,00.0,39.2,31.8,12.8,0000.0,0004.82,0018.20,0003.68
2021-10-26 07:24:00,,0815.4,5.00,0.00,30.1,29.2,00.0,39.2,31.8,12.9,0000.0,0004.79,0016.57,0003.63
2021-10-26 07:25:00,,0815.4,4.98,0.00,30.1,29.2,00.0,39.2,31.7,12.9,0000.0,0004.76,0017.45,0003.58
2021-10-26 07:26:00,,0815.2,5.00,0.00,30.1,29.2,00.0,39.2,31.8,12.8,0000.0,0004.81,0018.67,0003.51
2021-10-26 07:27:00,,0815.0,5.01,0.00,30.1,29.2,00.0,39.2,31.8,12.7,0000.0,0004.81,0018.49,0003.46
2021-10-26 07:28:00,,0815.2,5.01,0.00,30.1,29.2,00.0,39.2,31.8,12.9,0000.0,0004.76,0017.43,0003.40
2021-10-26 07:29:00,,0815.2,4.99,0.00,30.1,29.2,00.0,39.2,31.7,13.0,0000.0,0004.78,0017.61,0003.33
2021-10-26 07:30:00,,0815.3,4.99,0.00,30.1,29.2,00.0,39.2,31.7,12.9,0000.0,0004.75,0016.65,0003.27
2021-10-26 07:31:00,,0815.5,5.01,0.00,30.1,29.2,00.0,39.2,31.8,13.0,0000.0,0004.74,0015.81,0003.22
2021-10-26 07:32:00,,0816.0,5.01,0.00,30.1,29.2,00.0,39.2,31.7,13.0,0000.0,0004.72,0016.70,0003.16
2021-10-26 07:33:00,,0815.7,5.00,0.00,30.1,29.2,00.0,39.2,31.8,12.9,0000.0,0004.67,0017.43,0003.11
2021-10-26 07:34:00,,0815.3,5.00,0.00,30.1,29.1,00.0,39.2,31.7,13.0,0000.0,0004.62,0017.73,0003.08
2021-10-26 07:35:00,,0815.2,4.99,0.00,30.1,29.1,00.0,39.2,31.8,13.0,0000.0,0004.62,0018.05,0003.08
2021-10-26 07:36:00,,0815.1,5.01,0.00,30.1,29.1,00.0,39.2,31.8,13.0,0000.0,0004.67,0017.75,0003.07
2021-10-26 07:37:00,,0815.1,5.00,0.00,30.0,29.1,00.0,39.2,31.7,13.1,0000.0,0004.67,0017.82,0003.06
2021-10-26 07:38:00,,0815.1,5.00,0.00,30.0,29.1,00.0,39.2,31.7,13.1,0000.0,0004.68,0018.39,0003.06
2021-10-26 07:39:00,,0814.9,5.00,0.00,30.0,29.1,00.0,39.2,31.7,13.1,0000.0,0004.66,0019.08,0003.06
2021-10-26 07:40:00,,0814.9,5.00,0.00,30.0,29.1,00.0,39.2,31.7,13.1,0000.0,0004.63,0018.84,0003.03
2021-10-26 07:41:00,,0815.1,5.00,0.00,30.0,29.1,00.0,39.2,31.7,13.1,0000.0,0004.64,0019.21,0003.00
2021-10-26 07:42:00,,0815.3,4.99,0.00,30.0,29.1,00.0,39.2,31.7,13.2,0000.0,0004.62,0019.66,0002.98
2021-10-26 07:43:00,,0815.3,5.01,0.00,30.0,29.1,00.0,39.1,31.7,13.2,0000.0,0004.69,0019.31,0003.02
2021-10-26 07:44:00,,0815.4,4.98,0.00,30.0,29.1,00.0,39.1,31.7,13.2,0000.0,0004.71,0018.71,0003.03
2021-10-26 07:45:00,,0815.4,4.99,0.00,30.0,29.0,00.0,39.1,31.7,13.2,0000.0,0004.76,0018.44,0003.02
2021-10-26 07:46:00,,0815.3,5.01,0.00,30.0,29.0,00.0,39.1,31.7,13.2,0000.0,0004.72,0018.47,0002.99
2021-10-26 07:47:00,,0815.2,5.01,0.00,29.9,29.0,00.0,39.1,31.6,13.2,0000.0,0004.66,0018.47,0002.94
2021-10-26 07:48:00,,0815.3,4.99,0.00,29.9,29.0,00.0,39.1,31.6,13.2,0000.0,0004.58,0017.41,0002.88
2021-10-26 07:49:00,,0815.0,5.00,0.00,29.9,29.0,00.0,39.1,31.6,13.2,0000.0,0004.52,0017.29,0002.81
2021-10-26 07:50:00,,0814.9,4.99,0.00,29.9,29.0,00.0,39.1,31.6,13.2,0000.0,0004.48,0016.49,0002.75
2021-10-26 07:51:00,,0814.9,5.01,0.00,29.9,29.0,00.0,39.1,31.6,13.2,0000.0,0004.43,0016.28,0002.72
2021-10-26 07:52:00,,0814.9,5.00,0.00,29.9,29.0,00.0,39.1,31.6,13.2,0000.0,0004.41,0016.43,0002.71
2021-10-26 07:53:00,,0814.9,4.99,0.00,29.9,29.0,00.0,39.1,31.7,13.2,0000.0,0004.48,0016.67,0002.72
2021-10-26 07:54:00,,0814.9,5.00,0.00,29.9,29.0,00.0,39.1,31.7,13.2,0000.0,0004.51,0017.42,0002.76
2021-10-26 07:55:00,,0814.9,5.01,0.00,29.9,29.0,00.0,39.1,31.6,13.3,0000.0,0004.63,0017.35,0002.87
2021-10-26 07:56:00,,0815.2,4.99,0.00,29.9,29.0,00.0,39.1,31.6,13.4,0000.0,0004.75,0017.91,0003.04
2021-10-26 07:57:00,,0814.9,5.01,0.00,29.9,29.0,00.0,39.1,31.6,13.5,0000.0,0004.89,0018.84,0003.16
2021-10-26 07:58:00,,0815.1,4.99,0.00,29.9,29.0,00.0,39.0,31.6,13.5,0000.0,0005.03,0018.40,0003.27
2021-10-26 07:59:00,,0814.9,5.01,0.00,29.9,29.0,00.0,39.0,31.6,13.5,0000.0,0005.16,0018.84,0003.35
